Time,TemperatureF,DewpointF,PressureIn,WindDirection,WindDirectionDegrees,WindSpeedMPH,WindSpeedGustMPH,Humidity,HourlyPrecipIn,Conditions,Clouds,dailyrainin,SoftwareType,DateUTC
2013-09-22 00:00:00,56.8,55.7,29.79,ESE,117,0.0,0.0,96,0.00,,,0.97,Wunderground v.1.15,2013-09-22 04:00:00,
2013-09-22 00:01:00,56.7,55.6,29.79,ESE,117,0.0,0.0,96,0.00,,,0.97,Wunderground v.1.15,2013-09-22 04:01:00,
2013-09-22 00:03:00,56.6,55.5,29.79,ESE,117,0.0,0.0,96,0.00,,,0.97,Wunderground v.1.15,2013-09-22 04:03:00,
2013-09-22 00:06:00,56.6,55.5,29.79,ESE,117,0.0,0.0,96,0.00,,,0.97,Wunderground v.1.15,2013-09-22 04:06:00,
2013-09-22 00:08:00,56.4,55.3,29.79,ESE,117,0.0,0.0,96,0.00,,,0.00,Wunderground v.1.15,2013-09-22 04:08:00,
2013-09-22 00:10:00,56.4,55.3,29.79,ESE,117,0.0,0.0,96,0.00,,,0.00,Wunderground v.1.15,2013-09-22 04:10:00,
2013-09-22 00:15:00,56.2,55.1,29.79,ESE,117,0.0,0.0,96,0.00,,,0.00,Wunderground v.1.15,2013-09-22 04:15:00,
2013-09-22 00:21:00,56.0,54.9,29.79,ESE,117,0.0,0.0,96,0.00,,,0.00,Wunderground v.1.15,2013-09-22 04:21:00,
2013-09-22 00:27:00,55.8,54.7,29.79,ESE,117,0.0,0.0,96,0.00,,,0.00,Wunderground v.1.15,2013-09-22 04:27:00,
2013-09-22 00:32:00,55.7,54.6,29.79,ESE,117,0.0,0.0,96,0.00,,,0.00,Wunderground v.1.15,2013-09-22 04:32:00,
2013-09-22 00:38:00,55.5,54.4,29.79,ESE,117,0.0,0.0,96,0.00,,,0.00,Wunderground v.1.15,2013-09-22 04:38:00,
2013-09-22 00:43:00,55.4,54.3,29.79,ESE,117,0.0,0.0,96,0.00,,,0.00,Wunderground v.1.15,2013-09-22 04:43:00,
2013-09-22 00:48:00,55.2,54.1,29.79,ESE,117,0.0,0.0,96,0.00,,,0.00,Wunderground v.1.15,2013-09-22 04:48:00,
2013-09-22 00:54:00,55.0,53.9,29.79,ESE,117,0.0,0.0,96,0.00,,,0.00,Wunderground v.1.15,2013-09-22 04:54:00,
2013-09-22 00:59:00,54.9,53.8,29.79,ESE,117,0.0,0.0,96,0.00,,,0.00,Wunderground v.1.15,2013-09-22 04:59:00,
2013-09-22 01:04:00,54.7,53.6,29.79,ESE,117,0.0,0.0,96,0.00,,,0.00,Wunderground v.1.15,2013-09-22 05:04:00,
2013-09-22 01:10:00,54.5,53.4,29.79,ESE,117,0.0,0.0,96,0.00,,,0.00,Wunderground v.1.15,2013-09-22 05:10:00,
2013-09-22 01:15:00,54.3,53.2,29.79,ESE,117,0.0,0.0,96,0.00,,,0.00,Wunderground v.1.15,2013-09-22 05:15:00,
2013-09-22 01:20:00,54.1,53.0,29.79,ESE,117,0.0,0.0,96,0.00,,,0.00,Wunderground v.1.15,2013-09-22 05:20:00,
2013-09-22 01:25:00,54.0,52.9,29.79,ESE,117,0.0,0.0,96,0.00,,,0.00,Wunderground v.1.15,2013-09-22 05:25:00,
2013-09-22 01:31:00,54.1,53.0,29.80,ESE,117,0.0,0.0,96,0.00,,,0.00,Wunderground v.1.15,2013-09-22 05:31:00,
2013-09-22 01:36:00,54.2,53.1,29.80,ESE,117,0.0,0.0,96,0.00,,,0.00,Wunderground v.1.15,2013-09-22 05:36:00,
2013-09-22 01:41:00,54.1,53.0,29.80,ESE,117,0.0,0.0,96,0.00,,,0.00,Wunderground v.1.15,2013-09-22 05:41:00,
2013-09-22 01:46:00,53.9,52.8,29.80,ESE,117,0.0,0.0,96,0.00,,,0.00,Wunderground v.1.15,2013-09-22 05:46:00,
2013-09-22 01:52:00,53.7,52.6,29.80,ESE,117,0.0,0.0,96,0.00,,,0.00,Wunderground v.1.15,2013-09-22 05:52:00,
2013-09-22 01:57:00,53.6,52.5,29.80,ESE,117,0.0,0.0,96,0.00,,,0.00,Wunderground v.1.15,2013-09-22 05:57:00,
2013-09-22 02:03:00,53.4,52.3,29.80,ESE,117,0.0,0.0,96,0.00,,,0.00,Wunderground v.1.15,2013-09-22 06:03:00,
2013-09-22 02:08:00,53.2,52.1,29.80,ESE,117,0.0,0.0,96,0.00,,,0.00,Wunderground v.1.15,2013-09-22 06:08:00,
2013-09-22 02:14:00,53.0,51.9,29.80,ESE,117,0.0,0.0,96,0.00,,,0.00,Wunderground v.1.15,2013-09-22 06:14:00,
2013-09-22 02:19:00,52.8,51.7,29.81,ESE,117,0.0,0.0,96,0.00,,,0.00,Wunderground v.1.15,2013-09-22 06:19:00,
2013-09-22 02:24:00,52.6,51.5,29.81,ESE,117,0.0,0.0,96,0.00,,,0.00,Wunderground v.1.15,2013-09-22 06:24:00,
2013-09-22 02:29:00,52.5,51.4,29.80,ESE,117,0.0,0.0,96,0.00,,,0.00,Wunderground v.1.15,2013-09-22 06:29:00,
2013-09-22 02:35:00,52.5,51.4,29.80,ESE,117,0.0,0.0,96,0.00,,,0.00,Wunderground v.1.15,2013-09-22 06:35:00,
2013-09-22 02:41:00,52.5,51.4,29.80,ESE,117,0.0,0.0,96,0.00,,,0.00,Wunderground v.1.15,2013-09-22 06:41:00,
2013-09-22 02:47:00,52.3,51.2,29.80,ESE,117,0.0,0.0,96,0.00,,,0.00,Wunderground v.1.15,2013-09-22 06:47:00,
2013-09-22 02:52:00,52.2,51.1,29.80,ESE,117,0.0,0.0,96,0.00,,,0.00,Wunderground v.1.15,2013-09-22 06:52:00,
2013-09-22 02:57:00,52.1,51.0,29.80,ESE,117,0.0,0.0,96,0.00,,,0.00,Wunderground v.1.15,2013-09-22 06:57:00,
2013-09-22 03:02:00,52.1,51.0,29.80,ESE,117,0.0,0.0,96,0.00,,,0.00,Wunderground v.1.15,2013-09-22 07:02:00,
2013-09-22 03:08:00,52.0,50.9,29.80,ESE,117,0.0,0.0,96,0.00,,,0.00,Wunderground v.1.15,2013-09-22 07:08:00,
2013-09-22 03:13:00,51.9,50.8,29.80,ESE,117,0.0,0.0,96,0.00,,,0.00,Wunderground v.1.15,2013-09-22 07:13:00,
2013-09-22 03:18:00,51.9,51.1,29.80,ESE,117,0.0,0.0,97,0.00,,,0.00,Wunderground v.1.15,2013-09-22 07:18:00,
2013-09-22 03:23:00,52.1,51.3,29.81,ESE,117,0.0,0.0,97,0.00,,,0.00,Wunderground v.1.15,2013-09-22 07:23:00,
2013-09-22 03:29:00,52.2,51.4,29.81,ESE,117,0.0,0.0,97,0.00,,,0.00,Wunderground v.1.15,2013-09-22 07:29:00,
2013-09-22 03:34:00,52.1,51.3,29.81,ESE,117,0.0,0.0,97,0.00,,,0.00,Wunderground v.1.15,2013-09-22 07:34:00,
2013-09-22 03:39:00,52.1,51.3,29.81,ESE,117,0.0,0.0,97,0.00,,,0.00,Wunderground v.1.15,2013-09-22 07:39:00,
2013-09-22 03:44:00,52.2,51.4,29.81,ESE,117,0.0,0.0,97,0.00,,,0.00,Wunderground v.1.15,2013-09-22 07:44:00,
2013-09-22 03:49:00,52.3,51.5,29.82,ESE,117,0.0,0.0,97,0.00,,,0.00,Wunderground v.1.15,2013-09-22 07:49:00,
2013-09-22 03:54:00,52.4,51.6,29.81,ESE,117,0.0,0.0,97,0.00,,,0.00,Wunderground v.1.15,2013-09-22 07:54:00,
2013-09-22 04:00:00,52.6,51.8,29.81,ESE,117,0.0,0.0,97,0.00,,,0.00,Wunderground v.1.15,2013-09-22 08:00:00,
2013-09-22 04:06:00,52.8,52.0,29.81,ESE,117,0.0,0.0,97,0.00,,,0.00,Wunderground v.1.15,2013-09-22 08:06:00,
2013-09-22 04:12:00,53.0,52.2,29.82,ESE,117,0.0,0.0,97,0.00,,,0.00,Wunderground v.1.15,2013-09-22 08:12:00,
2013-09-22 04:18:00,53.2,52.4,29.82,ESE,117,0.0,0.0,97,0.00,,,0.00,Wunderground v.1.15,2013-09-22 08:18:00,
2013-09-22 04:23:00,53.4,52.6,29.82,ESE,117,0.0,0.0,97,0.00,,,0.00,Wunderground v.1.15,2013-09-22 08:23:00,
2013-09-22 04:28:00,53.5,52.7,29.82,ESE,117,0.0,0.0,97,0.00,,,0.00,Wunderground v.1.15,2013-09-22 08:28:00,
2013-09-22 04:33:00,53.7,52.9,29.82,ESE,117,0.0,0.0,97,0.00,,,0.00,Wunderground v.1.15,2013-09-22 08:33:00,
2013-09-22 04:38:00,53.8,53.0,29.82,ESE,117,0.0,0.0,97,0.00,,,0.00,Wunderground v.1.15,2013-09-22 08:38:00,
2013-09-22 04:43:00,53.9,53.1,29.82,ESE,117,0.0,0.0,97,0.00,,,0.00,Wunderground v.1.15,2013-09-22 08:43:00,
2013-09-22 04:48:00,53.9,53.1,29.82,ESE,117,0.0,0.0,97,0.00,,,0.00,Wunderground v.1.15,2013-09-22 08:48:00,
2013-09-22 04:53:00,53.9,53.1,29.82,ESE,117,0.0,0.0,97,0.00,,,0.00,Wunderground v.1.15,2013-09-22 08:53:00,
2013-09-22 04:59:00,53.9,53.1,29.82,ESE,117,0.0,0.0,97,0.00,,,0.00,Wunderground v.1.15,2013-09-22 08:59:00,
2013-09-22 05:04:00,53.9,53.1,29.83,ESE,117,0.0,0.0,97,0.00,,,0.00,Wunderground v.1.15,2013-09-22 09:04:00,
2013-09-22 05:09:00,53.9,53.1,29.83,ESE,117,0.0,0.0,97,0.00,,,0.00,Wunderground v.1.15,2013-09-22 09:09:00,
2013-09-22 05:14:00,54.0,53.2,29.83,ESE,117,0.0,0.0,97,0.00,,,0.00,Wunderground v.1.15,2013-09-22 09:14:00,
2013-09-22 05:19:00,54.1,53.3,29.83,ESE,117,0.0,0.0,97,0.00,,,0.00,Wunderground v.1.15,2013-09-22 09:19:00,
2013-09-22 05:25:00,54.2,53.4,29.83,ESE,117,0.0,0.0,97,0.00,,,0.00,Wunderground v.1.15,2013-09-22 09:25:00,
2013-09-22 05:30:00,54.3,53.5,29.83,ESE,117,0.0,0.0,97,0.00,,,0.00,Wunderground v.1.15,2013-09-22 09:30:00,
2013-09-22 05:35:00,54.4,53.6,29.83,ESE,117,0.0,0.0,97,0.00,,,0.00,Wunderground v.1.15,2013-09-22 09:35:00,
2013-09-22 05:40:00,54.5,53.7,29.83,ESE,117,0.0,0.0,97,0.00,,,0.00,Wunderground v.1.15,2013-09-22 09:40:00,
2013-09-22 05:46:00,54.6,53.8,29.84,ESE,117,0.0,0.0,97,0.00,,,0.00,Wunderground v.1.15,2013-09-22 09:46:00,
2013-09-22 05:51:00,54.8,54.0,29.84,ESE,117,0.0,0.0,97,0.00,,,0.00,Wunderground v.1.15,2013-09-22 09:51:00,
2013-09-22 05:57:00,54.8,54.0,29.84,ESE,117,0.0,0.0,97,0.00,,,0.00,Wunderground v.1.15,2013-09-22 09:57:00,
2013-09-22 06:02:00,54.9,54.1,29.84,ESE,117,0.0,0.0,97,0.00,,,0.00,Wunderground v.1.15,2013-09-22 10:02:00,
2013-09-22 06:07:00,55.0,54.2,29.84,ESE,117,0.0,0.0,97,0.00,,,0.00,Wunderground v.1.15,2013-09-22 10:07:00,
2013-09-22 06:12:00,55.1,54.3,29.84,ESE,117,0.0,0.0,97,0.00,,,0.00,Wunderground v.1.15,2013-09-22 10:12:00,
2013-09-22 06:17:00,55.2,54.4,29.84,ESE,117,0.0,0.0,97,0.00,,,0.00,Wunderground v.1.15,2013-09-22 10:17:00,
2013-09-22 06:22:00,55.2,54.4,29.84,ESE,117,0.0,0.0,97,0.00,,,0.00,Wunderground v.1.15,2013-09-22 10:22:00,
2013-09-22 06:28:00,55.3,54.5,29.84,ESE,117,0.0,0.0,97,0.00,,,0.00,Wunderground v.1.15,2013-09-22 10:28:00,
2013-09-22 06:33:00,55.3,54.5,29.84,ESE,117,0.0,0.0,97,0.00,,,0.00,Wunderground v.1.15,2013-09-22 10:33:00,
2013-09-22 06:39:00,55.2,54.4,29.85,ESE,117,0.0,0.0,97,0.00,,,0.00,Wunderground v.1.15,2013-09-22 10:39:00,
2013-09-22 06:44:00,55.1,54.3,29.85,ESE,117,0.0,0.0,97,0.00,,,0.00,Wunderground v.1.15,2013-09-22 10:44:00,
2013-09-22 06:50:00,55.1,54.3,29.85,ESE,117,0.0,0.0,97,0.00,,,0.00,Wunderground v.1.15,2013-09-22 10:50:00,
2013-09-22 07:04:00,54.9,54.1,29.85,ESE,117,0.0,0.0,97,0.00,,,0.00,Wunderground v.1.15,2013-09-22 11:04:00,
2013-09-22 07:09:00,54.9,54.1,29.85,ESE,117,0.0,0.0,97,0.00,,,0.00,Wunderground v.1.15,2013-09-22 11:09:00,
2013-09-22 07:14:00,54.8,54.0,29.85,ESE,117,0.0,0.0,97,0.00,,,0.00,Wunderground v.1.15,2013-09-22 11:14:00,
2013-09-22 07:19:00,54.8,54.0,29.85,SSE,154,0.0,0.0,97,0.00,,,0.00,Wunderground v.1.15,2013-09-22 11:19:00,
2013-09-22 07:24:00,54.7,53.9,29.86,SSE,154,0.0,0.0,97,0.00,,,0.00,Wunderground v.1.15,2013-09-22 11:24:00,
2013-09-22 07:30:00,54.7,53.9,29.86,SSE,154,0.0,0.0,97,0.00,,,0.00,Wunderground v.1.15,2013-09-22 11:30:00,
2013-09-22 07:35:00,54.6,53.8,29.86,SSE,154,0.0,0.0,97,0.00,,,0.00,Wunderground v.1.15,2013-09-22 11:35:00,
2013-09-22 07:41:00,54.7,53.9,29.86,SSE,154,0.0,0.0,97,0.00,,,0.00,Wunderground v.1.15,2013-09-22 11:41:00,
2013-09-22 07:47:00,54.6,53.8,29.87,SSE,154,0.0,0.0,97,0.00,,,0.00,Wunderground v.1.15,2013-09-22 11:47:00,
2013-09-22 07:52:00,54.6,53.8,29.87,SSE,154,0.0,0.0,97,0.00,,,0.00,Wunderground v.1.15,2013-09-22 11:52:00,
2013-09-22 07:57:00,54.7,53.9,29.87,SSE,154,0.0,0.0,97,0.00,,,0.00,Wunderground v.1.15,2013-09-22 11:57:00,
2013-09-22 08:03:00,54.8,54.0,29.87,SSE,154,0.0,0.0,97,0.00,,,0.00,Wunderground v.1.15,2013-09-22 12:03:00,
2013-09-22 08:09:00,55.0,54.2,29.87,SSE,154,0.0,0.0,97,0.00,,,0.00,Wunderground v.1.15,2013-09-22 12:09:00,
2013-09-22 08:14:00,55.4,54.6,29.87,SE,124,0.0,1.0,97,0.00,,,0.00,Wunderground v.1.15,2013-09-22 12:14:00,
2013-09-22 08:19:00,55.7,54.9,29.87,SE,124,0.0,1.0,97,0.00,,,0.00,Wunderground v.1.15,2013-09-22 12:19:00,
2013-09-22 08:24:00,55.9,55.1,29.88,SE,124,0.0,1.0,97,0.00,,,0.00,Wunderground v.1.15,2013-09-22 12:24:00,
2013-09-22 08:29:00,56.0,55.2,29.88,SE,124,0.0,1.0,97,0.00,,,0.00,Wunderground v.1.15,2013-09-22 12:29:00,
2013-09-22 08:35:00,55.9,55.1,29.88,SE,124,0.0,0.0,97,0.00,,,0.00,Wunderground v.1.15,2013-09-22 12:35:00,
2013-09-22 08:40:00,56.2,55.4,29.88,SE,124,0.0,0.0,97,0.00,,,0.00,Wunderground v.1.15,2013-09-22 12:40:00,
2013-09-22 08:45:00,56.4,55.6,29.88,East,87,0.0,0.0,97,0.00,,,0.00,Wunderground v.1.15,2013-09-22 12:45:00,
2013-09-22 08:50:00,56.4,55.6,29.88,East,87,0.0,0.0,97,0.00,,,0.00,Wunderground v.1.15,2013-09-22 12:50:00,
2013-09-22 08:55:00,56.3,55.5,29.89,SE,132,0.0,1.0,97,0.00,,,0.00,Wunderground v.1.15,2013-09-22 12:55:00,
2013-09-22 09:00:00,56.1,55.3,29.89,ENE,67,0.0,0.0,97,0.00,,,0.00,Wunderground v.1.15,2013-09-22 13:00:00,
2013-09-22 09:06:00,55.8,54.7,29.89,ENE,67,0.0,0.0,96,0.00,,,0.00,Wunderground v.1.15,2013-09-22 13:06:00,
2013-09-22 09:12:00,55.7,54.6,29.89,SE,140,0.0,1.0,96,0.00,,,0.00,Wunderground v.1.15,2013-09-22 13:12:00,
2013-09-22 09:17:00,55.7,54.6,29.90,SE,140,0.0,1.0,96,0.00,,,0.00,Wunderground v.1.15,2013-09-22 13:17:00,
2013-09-22 09:23:00,55.8,54.7,29.90,SE,140,0.0,2.0,96,0.00,,,0.00,Wunderground v.1.15,2013-09-22 13:23:00,
2013-09-22 09:28:00,55.8,54.7,29.90,ESE,115,0.0,2.0,96,0.00,,,0.00,Wunderground v.1.15,2013-09-22 13:28:00,
2013-09-22 09:33:00,55.8,54.7,29.90,ENE,71,1.0,2.0,96,0.00,,,0.00,Wunderground v.1.15,2013-09-22 13:33:00,
2013-09-22 09:39:00,56.0,54.6,29.91,East,93,0.0,2.0,95,0.00,,,0.00,Wunderground v.1.15,2013-09-22 13:39:00,
2013-09-22 09:44:00,56.8,55.7,29.91,East,85,1.0,1.0,96,0.00,,,0.00,Wunderground v.1.15,2013-09-22 13:44:00,
2013-09-22 09:49:00,57.1,55.1,29.91,East,92,1.0,1.0,93,0.00,,,0.00,Wunderground v.1.15,2013-09-22 13:49:00,
2013-09-22 09:54:00,57.2,54.9,29.91,ESE,115,1.0,2.0,92,0.00,,,0.00,Wunderground v.1.15,2013-09-22 13:54:00,
2013-09-22 09:59:00,57.2,54.6,29.91,ESE,103,1.0,2.0,91,0.00,,,0.00,Wunderground v.1.15,2013-09-22 13:59:00,
2013-09-22 10:05:00,57.2,54.6,29.92,ESE,103,1.0,1.0,91,0.00,,,0.00,Wunderground v.1.15,2013-09-22 14:05:00,
2013-09-22 10:10:00,57.1,54.2,29.92,ESE,107,1.0,1.0,90,0.00,,,0.00,Wunderground v.1.15,2013-09-22 14:10:00,
2013-09-22 10:15:00,57.1,53.6,29.92,SE,128,1.0,2.0,88,0.00,,,0.00,Wunderground v.1.15,2013-09-22 14:15:00,
2013-09-22 10:21:00,57.0,53.5,29.92,SE,128,0.0,0.0,88,0.00,,,0.00,Wunderground v.1.15,2013-09-22 14:21:00,
2013-09-22 10:27:00,57.0,52.9,29.92,NE,35,0.0,5.0,86,0.00,,,0.00,Wunderground v.1.15,2013-09-22 14:27:00,
2013-09-22 10:32:00,57.0,53.2,29.92,ESE,110,1.0,1.0,87,0.00,,,0.00,Wunderground v.1.15,2013-09-22 14:32:00,
2013-09-22 10:37:00,57.3,53.5,29.92,ENE,60,0.0,1.0,87,0.00,,,0.00,Wunderground v.1.15,2013-09-22 14:37:00,
2013-09-22 10:43:00,57.8,53.3,29.93,ENE,68,0.0,1.0,85,0.00,,,0.00,Wunderground v.1.15,2013-09-22 14:43:00,
2013-09-22 10:49:00,58.3,53.5,29.93,ENE,75,0.0,1.0,84,0.00,,,0.00,Wunderground v.1.15,2013-09-22 14:49:00,
2013-09-22 10:54:00,58.6,52.8,29.93,NE,34,0.0,0.0,81,0.00,,,0.00,Wunderground v.1.15,2013-09-22 14:54:00,
2013-09-22 10:59:00,58.7,52.2,29.93,SE,135,0.0,3.0,79,0.00,,,0.00,Wunderground v.1.15,2013-09-22 14:59:00,
2013-09-22 11:05:00,58.7,52.2,29.93,East,98,1.0,1.0,79,0.00,,,0.00,Wunderground v.1.15,2013-09-22 15:05:00,
2013-09-22 11:11:00,59.1,51.9,29.92,ESE,115,0.0,0.0,77,0.00,,,0.00,Wunderground v.1.15,2013-09-22 15:11:00,
2013-09-22 11:16:00,59.6,53.4,29.93,ESE,123,0.0,1.0,80,0.00,,,0.00,Wunderground v.1.15,2013-09-22 15:16:00,
2013-09-22 11:21:00,60.1,52.9,29.93,SE,131,0.0,3.0,77,0.00,,,0.00,Wunderground v.1.15,2013-09-22 15:21:00,
2013-09-22 11:27:00,60.4,51.3,29.93,East,97,0.0,3.0,72,0.00,,,0.00,Wunderground v.1.15,2013-09-22 15:27:00,
2013-09-22 11:32:00,60.5,52.5,29.93,NE,53,1.0,3.0,75,0.00,,,0.00,Wunderground v.1.15,2013-09-22 15:32:00,
2013-09-22 11:37:00,60.5,50.7,29.93,East,98,1.0,3.0,70,0.00,,,0.00,Wunderground v.1.15,2013-09-22 15:37:00,
2013-09-22 11:43:00,60.8,51.0,29.93,NE,42,1.0,1.0,70,0.00,,,0.00,Wunderground v.1.15,2013-09-22 15:43:00,
2013-09-22 11:48:00,60.8,51.7,29.93,ESE,113,1.0,1.0,72,0.00,,,0.00,Wunderground v.1.15,2013-09-22 15:48:00,
2013-09-22 11:53:00,61.0,51.9,29.93,East,92,1.0,2.0,72,0.00,,,0.00,Wunderground v.1.15,2013-09-22 15:53:00,
2013-09-22 11:58:00,60.7,51.2,29.93,ESE,110,1.0,2.0,71,0.00,,,0.01,Wunderground v.1.15,2013-09-22 15:58:00,
2013-09-22 12:03:00,60.5,51.0,29.93,East,88,1.0,5.0,71,0.00,,,0.01,Wunderground v.1.15,2013-09-22 16:03:00,
2013-09-22 12:09:00,60.6,50.0,29.93,ENE,60,1.0,5.0,68,0.00,,,0.01,Wunderground v.1.15,2013-09-22 16:09:00,
2013-09-22 12:14:00,60.7,51.2,29.93,ESE,113,1.0,2.0,71,0.00,,,0.01,Wunderground v.1.15,2013-09-22 16:14:00,
2013-09-22 12:19:00,60.8,50.2,29.93,ENE,64,0.0,3.0,68,0.00,,,0.01,Wunderground v.1.15,2013-09-22 16:19:00,
2013-09-22 12:24:00,60.6,48.4,29.93,ESE,117,0.0,2.0,64,0.00,,,0.01,Wunderground v.1.15,2013-09-22 16:24:00,
2013-09-22 12:30:00,60.6,48.8,29.93,ESE,117,0.0,0.0,65,0.00,,,0.01,Wunderground v.1.15,2013-09-22 16:30:00,
2013-09-22 12:35:00,60.4,48.6,29.93,ESE,115,0.0,0.0,65,0.00,,,0.01,Wunderground v.1.15,2013-09-22 16:35:00,
2013-09-22 12:40:00,60.5,49.1,29.93,ESE,109,0.0,3.0,66,0.00,,,0.01,Wunderground v.1.15,2013-09-22 16:40:00,
2013-09-22 12:46:00,61.3,49.4,29.93,ESE,105,1.0,3.0,65,0.00,,,0.01,Wunderground v.1.15,2013-09-22 16:46:00,
2013-09-22 12:51:00,62.1,49.8,29.93,ENE,68,1.0,3.0,64,0.00,,,0.01,Wunderground v.1.15,2013-09-22 16:51:00,
2013-09-22 12:57:00,62.6,51.1,29.93,East,94,1.0,3.0,66,0.00,,,0.01,Wunderground v.1.15,2013-09-22 16:57:00,
2013-09-22 13:02:00,62.9,51.8,29.93,SSW,209,0.0,2.0,67,0.00,,,0.01,Wunderground v.1.15,2013-09-22 17:02:00,
2013-09-22 13:07:00,62.6,49.8,29.93,East,92,1.0,2.0,63,0.00,,,0.01,Wunderground v.1.15,2013-09-22 17:07:00,
2013-09-22 13:13:00,62.0,48.8,29.93,ESE,118,0.0,0.0,62,0.00,,,0.01,Wunderground v.1.15,2013-09-22 17:13:00,
2013-09-22 13:19:00,61.5,49.6,29.93,SE,133,0.0,1.0,65,0.00,,,0.01,Wunderground v.1.15,2013-09-22 17:19:00,
2013-09-22 13:24:00,61.8,49.9,29.93,ENE,68,0.0,4.0,65,0.00,,,0.01,Wunderground v.1.15,2013-09-22 17:24:00,
2013-09-22 13:29:00,62.1,47.6,29.93,ESE,109,1.0,4.0,59,0.00,,,0.01,Wunderground v.1.15,2013-09-22 17:29:00,
2013-09-22 13:34:00,62.0,48.4,29.93,East,79,0.0,1.0,61,0.00,,,0.01,Wunderground v.1.15,2013-09-22 17:34:00,
2013-09-22 13:39:00,61.6,49.3,29.93,ENE,72,0.0,4.0,64,0.00,,,0.01,Wunderground v.1.15,2013-09-22 17:39:00,
2013-09-22 13:45:00,61.2,49.3,29.93,ENE,73,0.0,1.0,65,0.00,,,0.01,Wunderground v.1.15,2013-09-22 17:45:00,
2013-09-22 13:50:00,61.1,48.8,29.93,SSE,164,0.0,0.0,64,0.00,,,0.01,Wunderground v.1.15,2013-09-22 17:50:00,
2013-09-22 13:55:00,61.0,50.0,29.92,East,101,0.0,1.0,67,0.00,,,0.01,Wunderground v.1.15,2013-09-22 17:55:00,
2013-09-22 14:00:00,61.4,50.7,29.92,NE,55,0.0,2.0,68,0.00,,,0.01,Wunderground v.1.15,2013-09-22 18:00:00,
2013-09-22 14:06:00,61.8,51.5,29.92,WNW,295,1.0,2.0,69,0.00,,,0.01,Wunderground v.1.15,2013-09-22 18:06:00,
2013-09-22 14:12:00,61.7,51.0,29.92,NE,41,1.0,1.0,68,0.00,,,0.01,Wunderground v.1.15,2013-09-22 18:12:00,
2013-09-22 14:17:00,61.1,50.5,29.92,East,86,1.0,1.0,68,0.00,,,0.01,Wunderground v.1.15,2013-09-22 18:17:00,
2013-09-22 14:23:00,60.6,50.8,29.92,ENE,67,0.0,1.0,70,0.00,,,0.01,Wunderground v.1.15,2013-09-22 18:23:00,
2013-09-22 14:28:00,60.4,51.3,29.92,ESE,116,0.0,1.0,72,0.00,,,0.01,Wunderground v.1.15,2013-09-22 18:28:00,
2013-09-22 14:33:00,60.3,50.9,29.92,East,79,0.0,2.0,71,0.00,,,0.01,Wunderground v.1.15,2013-09-22 18:33:00,
2013-09-22 14:39:00,60.6,50.4,29.92,SE,145,0.0,2.0,69,0.00,,,0.01,Wunderground v.1.15,2013-09-22 18:39:00,
2013-09-22 14:44:00,60.9,50.3,29.92,East,99,1.0,3.0,68,0.00,,,0.01,Wunderground v.1.15,2013-09-22 18:44:00,
2013-09-22 14:49:00,60.9,50.3,29.92,ENE,61,1.0,3.0,68,0.00,,,0.01,Wunderground v.1.15,2013-09-22 18:49:00,
2013-09-22 14:54:00,61.1,50.1,29.92,ESE,115,0.0,1.0,67,0.00,,,0.01,Wunderground v.1.15,2013-09-22 18:54:00,
2013-09-22 15:00:00,61.5,50.4,29.92,NNE,31,1.0,1.0,67,0.00,,,0.01,Wunderground v.1.15,2013-09-22 19:00:00,
2013-09-22 15:06:00,62.0,50.9,29.92,West,281,1.0,3.0,67,0.00,,,0.01,Wunderground v.1.15,2013-09-22 19:06:00,
2013-09-22 15:11:00,62.1,49.4,29.92,NW,317,1.0,1.0,63,0.00,,,0.01,Wunderground v.1.15,2013-09-22 19:11:00,
2013-09-22 15:16:00,61.9,50.0,29.92,SE,135,0.0,1.0,65,0.00,,,0.01,Wunderground v.1.15,2013-09-22 19:16:00,
2013-09-22 15:22:00,61.6,50.1,29.93,ESE,117,0.0,2.0,66,0.00,,,0.01,Wunderground v.1.15,2013-09-22 19:22:00,
2013-09-22 15:27:00,61.2,50.2,29.93,ENE,69,1.0,2.0,67,0.00,,,0.01,Wunderground v.1.15,2013-09-22 19:27:00,
2013-09-22 15:32:00,60.9,50.3,29.93,NW,313,0.0,1.0,68,0.00,,,0.01,Wunderground v.1.15,2013-09-22 19:32:00,
2013-09-22 15:38:00,60.5,50.3,29.93,ENE,68,0.0,2.0,69,0.00,,,0.01,Wunderground v.1.15,2013-09-22 19:38:00,
2013-09-22 15:43:00,60.3,51.2,29.93,ESE,123,0.0,1.0,72,0.00,,,0.01,Wunderground v.1.15,2013-09-22 19:43:00,
2013-09-22 15:48:00,60.4,51.3,29.93,ESE,117,0.0,1.0,72,0.00,,,0.01,Wunderground v.1.15,2013-09-22 19:48:00,
2013-09-22 15:54:00,60.4,50.6,29.93,East,84,0.0,3.0,70,0.00,,,0.01,Wunderground v.1.15,2013-09-22 19:54:00,
2013-09-22 15:59:00,60.3,50.1,29.93,North,5,1.0,3.0,69,0.00,,,0.01,Wunderground v.1.15,2013-09-22 19:59:00,
2013-09-22 16:04:00,60.2,50.4,29.93,East,79,0.0,2.0,70,0.00,,,0.01,Wunderground v.1.15,2013-09-22 20:04:00,
2013-09-22 16:09:00,60.2,50.8,29.93,ENE,66,0.0,2.0,71,0.00,,,0.01,Wunderground v.1.15,2013-09-22 20:09:00,
2013-09-22 16:15:00,60.3,50.1,29.93,ESE,104,1.0,3.0,69,0.00,,,0.01,Wunderground v.1.15,2013-09-22 20:15:00,
2013-09-22 16:20:00,60.2,49.6,29.93,East,90,1.0,1.0,68,0.00,,,0.01,Wunderground v.1.15,2013-09-22 20:20:00,
2013-09-22 16:25:00,60.2,50.0,29.93,East,90,1.0,1.0,69,0.00,,,0.01,Wunderground v.1.15,2013-09-22 20:25:00,
2013-09-22 16:30:00,60.2,50.4,29.93,East,90,0.0,0.0,70,0.00,,,0.01,Wunderground v.1.15,2013-09-22 20:30:00,
2013-09-22 16:36:00,60.1,49.5,29.93,East,90,0.0,0.0,68,0.00,,,0.01,Wunderground v.1.15,2013-09-22 20:36:00,
2013-09-22 16:42:00,60.1,50.7,29.93,East,90,0.0,0.0,71,0.00,,,0.01,Wunderground v.1.15,2013-09-22 20:42:00,
2013-09-22 16:48:00,60.0,49.8,29.93,ESE,107,0.0,2.0,69,0.00,,,0.01,Wunderground v.1.15,2013-09-22 20:48:00,
2013-09-22 16:53:00,60.0,49.4,29.93,ESE,107,0.0,0.0,68,0.00,,,0.01,Wunderground v.1.15,2013-09-22 20:53:00,
2013-09-22 16:58:00,59.9,52.0,29.93,ESE,107,0.0,0.0,75,0.00,,,0.01,Wunderground v.1.15,2013-09-22 20:58:00,
2013-09-22 17:03:00,59.7,52.1,29.93,ESE,107,0.0,0.0,76,0.00,,,0.01,Wunderground v.1.15,2013-09-22 21:03:00,
2013-09-22 17:08:00,59.5,50.5,29.93,ESE,107,0.0,0.0,72,0.00,,,0.01,Wunderground v.1.15,2013-09-22 21:08:00,
2013-09-22 17:14:00,59.4,49.6,29.93,East,99,0.0,2.0,70,0.00,,,0.01,Wunderground v.1.15,2013-09-22 21:14:00,
2013-09-22 17:19:00,59.3,49.5,29.93,East,99,1.0,2.0,70,0.00,,,0.01,Wunderground v.1.15,2013-09-22 21:19:00,
2013-09-22 17:24:00,59.3,49.1,29.94,ENE,76,0.0,0.0,69,0.00,,,0.01,Wunderground v.1.15,2013-09-22 21:24:00,
2013-09-22 17:30:00,59.2,49.8,29.94,East,95,0.0,0.0,71,0.00,,,0.01,Wunderground v.1.15,2013-09-22 21:30:00,
2013-09-22 17:35:00,59.1,49.3,29.94,ESE,102,0.0,1.0,70,0.00,,,0.01,Wunderground v.1.15,2013-09-22 21:35:00,
2013-09-22 17:41:00,58.9,49.5,29.94,ESE,107,0.0,1.0,71,0.00,,,0.01,Wunderground v.1.15,2013-09-22 21:41:00,
2013-09-22 17:47:00,58.7,48.6,29.94,East,101,0.0,1.0,69,0.00,,,0.01,Wunderground v.1.15,2013-09-22 21:47:00,
2013-09-22 17:52:00,58.6,48.8,29.94,East,101,0.0,1.0,70,0.00,,,0.01,Wunderground v.1.15,2013-09-22 21:52:00,
2013-09-22 17:57:00,58.6,48.5,29.94,East,101,0.0,1.0,69,0.00,,,0.01,Wunderground v.1.15,2013-09-22 21:57:00,
2013-09-22 18:03:00,58.6,49.6,29.94,SE,135,0.0,0.0,72,0.00,,,0.01,Wunderground v.1.15,2013-09-22 22:03:00,
2013-09-22 18:08:00,58.5,48.7,29.94,NE,46,0.0,0.0,70,0.00,,,0.01,Wunderground v.1.15,2013-09-22 22:08:00,
2013-09-22 18:13:00,58.5,51.0,29.94,NE,46,0.0,0.0,76,0.00,,,0.01,Wunderground v.1.15,2013-09-22 22:13:00,
2013-09-22 18:18:00,58.3,49.3,29.95,ENE,67,0.0,0.0,72,0.00,,,0.01,Wunderground v.1.15,2013-09-22 22:18:00,
2013-09-22 18:23:00,58.2,49.6,29.95,ENE,67,0.0,1.0,73,0.00,,,0.01,Wunderground v.1.15,2013-09-22 22:23:00,
2013-09-22 18:29:00,58.1,49.9,29.95,SE,137,0.0,1.0,74,0.00,,,0.01,Wunderground v.1.15,2013-09-22 22:29:00,
2013-09-22 18:34:00,57.9,49.3,29.95,SE,137,0.0,0.0,73,0.00,,,0.01,Wunderground v.1.15,2013-09-22 22:34:00,
2013-09-22 18:39:00,57.7,49.5,29.95,SE,137,0.0,0.0,74,0.00,,,0.01,Wunderground v.1.15,2013-09-22 22:39:00,
2013-09-22 18:45:00,57.5,50.7,29.95,ESE,121,0.0,1.0,78,0.00,,,0.01,Wunderground v.1.15,2013-09-22 22:45:00,
2013-09-22 18:50:00,57.4,49.5,29.95,ESE,102,0.0,0.0,75,0.00,,,0.01,Wunderground v.1.15,2013-09-22 22:50:00,
2013-09-22 18:55:00,57.2,50.4,29.95,ESE,103,0.0,0.0,78,0.00,,,0.01,Wunderground v.1.15,2013-09-22 22:55:00,
2013-09-22 19:00:00,57.1,48.9,29.96,NNE,18,0.0,0.0,74,0.00,,,0.01,Wunderground v.1.15,2013-09-22 23:00:00,
2013-09-22 19:06:00,56.9,48.3,29.96,ESE,115,1.0,4.0,73,0.00,,,0.01,Wunderground v.1.15,2013-09-22 23:06:00,
2013-09-22 19:11:00,56.9,48.7,29.96,SSW,194,1.0,1.0,74,0.00,,,0.01,Wunderground v.1.15,2013-09-22 23:11:00,
2013-09-22 19:16:00,56.7,48.9,29.96,ENE,73,0.0,1.0,75,0.00,,,0.01,Wunderground v.1.15,2013-09-22 23:16:00,
2013-09-22 19:21:00,56.5,50.4,29.97,ENE,73,0.0,0.0,80,0.00,,,0.01,Wunderground v.1.15,2013-09-22 23:21:00,
2013-09-22 19:27:00,56.3,49.2,29.97,ENE,74,0.0,0.0,77,0.00,,,0.01,Wunderground v.1.15,2013-09-22 23:27:00,
2013-09-22 19:33:00,56.1,49.0,29.97,ENE,74,0.0,0.0,77,0.00,,,0.01,Wunderground v.1.15,2013-09-22 23:33:00,
2013-09-22 19:38:00,56.0,48.9,29.97,ENE,74,0.0,0.0,77,0.00,,,0.01,Wunderground v.1.15,2013-09-22 23:38:00,
2013-09-22 19:43:00,55.9,49.8,29.98,ENE,74,0.0,0.0,80,0.00,,,0.01,Wunderground v.1.15,2013-09-22 23:43:00,
2013-09-22 19:49:00,55.7,48.9,29.98,South,170,0.0,1.0,78,0.00,,,0.01,Wunderground v.1.15,2013-09-22 23:49:00,
2013-09-22 19:54:00,55.7,49.3,29.98,South,188,0.0,0.0,79,0.00,,,0.01,Wunderground v.1.15,2013-09-22 23:54:00,
2013-09-22 19:59:00,55.5,49.1,29.98,NNE,13,0.0,1.0,79,0.00,,,0.01,Wunderground v.1.15,2013-09-22 23:59:00,
2013-09-22 20:05:00,55.5,49.8,29.98,ESE,119,0.0,1.0,81,0.00,,,0.01,Wunderground v.1.15,2013-09-23 00:05:00,
2013-09-22 20:11:00,55.3,48.9,29.98,North,5,0.0,0.0,79,0.00,,,0.01,Wunderground v.1.15,2013-09-23 00:11:00,
2013-09-22 20:16:00,55.2,49.1,29.98,SE,126,0.0,1.0,80,0.00,,,0.01,Wunderground v.1.15,2013-09-23 00:16:00,
2013-09-22 20:22:00,55.1,49.0,29.99,SE,126,0.0,0.0,80,0.00,,,0.01,Wunderground v.1.15,2013-09-23 00:22:00,
2013-09-22 20:27:00,55.0,49.3,29.99,SE,126,0.0,0.0,81,0.00,,,0.01,Wunderground v.1.15,2013-09-23 00:27:00,
2013-09-22 20:32:00,54.8,49.1,29.99,SE,126,0.0,0.0,81,0.00,,,0.01,Wunderground v.1.15,2013-09-23 00:32:00,
2013-09-22 20:38:00,54.7,49.3,30.00,SE,126,0.0,0.0,82,0.00,,,0.01,Wunderground v.1.15,2013-09-23 00:38:00,
2013-09-22 20:43:00,54.6,49.2,30.00,SE,144,0.0,4.0,82,0.00,,,0.01,Wunderground v.1.15,2013-09-23 00:43:00,
2013-09-22 20:48:00,54.6,49.2,30.00,SE,146,0.0,4.0,82,0.00,,,0.01,Wunderground v.1.15,2013-09-23 00:48:00,
2013-09-22 20:53:00,54.6,49.2,30.00,SSE,155,0.0,0.0,82,0.00,,,0.01,Wunderground v.1.15,2013-09-23 00:53:00,
2013-09-22 20:58:00,54.5,49.1,30.00,SSE,155,0.0,0.0,82,0.00,,,0.01,Wunderground v.1.15,2013-09-23 00:58:00,
2013-09-22 21:04:00,54.5,49.4,30.00,SSE,152,0.0,1.0,83,0.00,,,0.01,Wunderground v.1.15,2013-09-23 01:04:00,
2013-09-22 21:10:00,54.4,49.0,30.00,SSE,152,0.0,0.0,82,0.00,,,0.01,Wunderground v.1.15,2013-09-23 01:10:00,
2013-09-22 21:15:00,54.4,49.3,30.01,ESE,105,0.0,0.0,83,0.00,,,0.01,Wunderground v.1.15,2013-09-23 01:15:00,
2013-09-22 21:20:00,54.4,49.3,30.01,ESE,103,0.0,0.0,83,0.00,,,0.01,Wunderground v.1.15,2013-09-23 01:20:00,
2013-09-22 21:25:00,54.3,49.6,30.01,ESE,103,0.0,1.0,84,0.00,,,0.01,Wunderground v.1.15,2013-09-23 01:25:00,
2013-09-22 21:31:00,54.2,49.1,30.01,ESE,103,0.0,0.0,83,0.00,,,0.01,Wunderground v.1.15,2013-09-23 01:31:00,
2013-09-22 21:37:00,54.2,49.1,30.01,ESE,105,0.0,3.0,83,0.00,,,0.01,Wunderground v.1.15,2013-09-23 01:37:00,
2013-09-22 21:42:00,54.1,49.4,30.01,South,178,0.0,0.0,84,0.00,,,0.01,Wunderground v.1.15,2013-09-23 01:42:00,
2013-09-22 21:47:00,54.0,49.3,30.01,ESE,103,0.0,0.0,84,0.00,,,0.01,Wunderground v.1.15,2013-09-23 01:47:00,
2013-09-22 21:52:00,54.0,49.0,30.02,NE,43,0.0,1.0,83,0.00,,,0.01,Wunderground v.1.15,2013-09-23 01:52:00,
2013-09-22 21:58:00,53.9,48.9,30.01,SW,219,0.0,2.0,83,0.00,,,0.01,Wunderground v.1.15,2013-09-23 01:58:00,
2013-09-22 22:04:00,53.9,49.2,30.02,ENE,65,0.0,1.0,84,0.00,,,0.01,Wunderground v.1.15,2013-09-23 02:04:00,
2013-09-22 22:09:00,53.8,49.1,30.02,NE,36,0.0,1.0,84,0.00,,,0.01,Wunderground v.1.15,2013-09-23 02:09:00,
2013-09-22 22:14:00,53.8,49.1,30.02,NE,36,0.0,0.0,84,0.00,,,0.01,Wunderground v.1.15,2013-09-23 02:14:00,
2013-09-22 22:20:00,53.7,49.0,30.02,NE,36,0.0,0.0,84,0.00,,,0.01,Wunderground v.1.15,2013-09-23 02:20:00,
2013-09-22 22:25:00,53.7,49.0,30.02,NE,36,0.0,0.0,84,0.00,,,0.01,Wunderground v.1.15,2013-09-23 02:25:00,
2013-09-22 22:31:00,53.6,49.2,30.02,NE,36,0.0,0.0,85,0.00,,,0.01,Wunderground v.1.15,2013-09-23 02:31:00,
2013-09-22 22:37:00,53.6,49.5,30.02,NE,36,0.0,0.0,86,0.00,,,0.01,Wunderground v.1.15,2013-09-23 02:37:00,
2013-09-22 22:42:00,53.5,49.1,30.02,NE,36,0.0,0.0,85,0.00,,,0.01,Wunderground v.1.15,2013-09-23 02:42:00,
2013-09-22 22:47:00,53.4,49.0,30.02,NE,36,0.0,0.0,85,0.00,,,0.01,Wunderground v.1.15,2013-09-23 02:47:00,
2013-09-22 22:53:00,53.4,49.0,30.02,NE,36,0.0,0.0,85,0.00,,,0.01,Wunderground v.1.15,2013-09-23 02:53:00,
2013-09-22 22:58:00,53.3,48.9,30.02,NE,36,0.0,1.0,85,0.00,,,0.01,Wunderground v.1.15,2013-09-23 02:58:00,
2013-09-22 23:04:00,53.3,49.2,30.02,NE,36,0.0,0.0,86,0.00,,,0.01,Wunderground v.1.15,2013-09-23 03:04:00,
2013-09-22 23:09:00,53.3,49.2,30.02,NE,36,0.0,0.0,86,0.00,,,0.01,Wunderground v.1.15,2013-09-23 03:09:00,
2013-09-22 23:15:00,53.2,49.1,30.02,NE,36,0.0,0.0,86,0.00,,,0.01,Wunderground v.1.15,2013-09-23 03:15:00,
2013-09-22 23:20:00,53.1,49.0,30.02,NE,36,0.0,0.0,86,0.00,,,0.01,Wunderground v.1.15,2013-09-23 03:20:00,
2013-09-22 23:25:00,53.1,49.0,30.02,NE,36,0.0,0.0,86,0.00,,,0.01,Wunderground v.1.15,2013-09-23 03:25:00,
2013-09-22 23:30:00,53.1,49.0,30.02,NE,36,0.0,0.0,86,0.00,,,0.01,Wunderground v.1.15,2013-09-23 03:30:00,
2013-09-22 23:36:00,53.1,49.0,30.02,NE,36,0.0,0.0,86,0.00,,,0.01,Wunderground v.1.15,2013-09-23 03:36:00,
2013-09-22 23:42:00,53.1,49.0,30.02,NE,36,0.0,0.0,86,0.00,,,0.01,Wunderground v.1.15,2013-09-23 03:42:00,
2013-09-22 23:47:00,53.1,49.3,30.02,NE,36,0.0,0.0,87,0.00,,,0.01,Wunderground v.1.15,2013-09-23 03:47:00,
2013-09-22 23:52:00,53.0,49.2,30.02,NE,36,0.0,0.0,87,0.00,,,0.01,Wunderground v.1.15,2013-09-23 03:52:00,
2013-09-22 23:59:00,52.9,48.8,30.02,NE,36,0.0,0.0,86,0.00,,,0.01,Wunderground v.1.15,2013-09-23 03:59:00,